�������l�o���
Date,Time,MP-1(��Sv/h),MP-2(��Sv/h),MP-3(��Sv/h),MP-4(��Sv/h),MP-5(��Sv/h),MP-6(��Sv/h),MP-7(��Sv/h),����,����(m/s),���J
2015/06/06,00:00,0.538,0.313,0.572,0.516,0.485,0.261,0.236,��쐼,7.0,�L
2015/06/06,00:10,0.534,0.315,0.569,0.509,0.481,0.260,0.233,��쐼,6.4,�L
2015/06/06,00:20,0.537,0.312,0.573,0.513,0.486,0.260,0.233,�쐼,6.5,�L
2015/06/06,00:30,0.534,0.313,0.565,0.509,0.480,0.259,0.232,��쐼,5.9,�L
2015/06/06,00:40,0.535,0.313,0.571,0.512,0.484,0.260,0.234,��쐼,5.8,�L
2015/06/06,00:50,0.533,0.314,0.565,0.507,0.479,0.259,0.233,��쐼,6.3,�L
2015/06/06,01:00,0.535,0.311,0.570,0.511,0.485,0.261,0.233,��쐼,6.0,�L
2015/06/06,01:10,0.532,0.315,0.563,0.507,0.477,0.261,0.233,�쐼,5.9,�L
2015/06/06,01:20,0.534,0.311,0.567,0.507,0.483,0.260,0.233,��쐼,7.9,�L
2015/06/06,01:30,0.530,0.313,0.557,0.502,0.476,0.260,0.233,��쐼,5.3,�L
2015/06/06,01:40,0.529,0.311,0.564,0.504,0.480,0.259,0.233,��쐼,3.9,�L
2015/06/06,01:50,0.528,0.313,0.557,0.501,0.477,0.259,0.232,��,3.1,�L
2015/06/06,02:00,0.527,0.311,0.561,0.502,0.478,0.259,0.231,��,2.8,�L
2015/06/06,02:10,0.527,0.310,0.556,0.500,0.476,0.258,0.229,��,2.4,�L
2015/06/06,02:20,0.525,0.309,0.559,0.498,0.477,0.256,0.230,��,1.6,�L
2015/06/06,02:30,0.527,0.307,0.553,0.499,0.476,0.257,0.229,���쓌,0.7,�L
2015/06/06,02:40,0.524,0.307,0.557,0.496,0.475,0.256,0.227,�쓌,1.2,�L
2015/06/06,02:50,0.525,0.307,0.551,0.496,0.473,0.256,0.227,��,0.7,�L
2015/06/06,03:00,0.523,0.307,0.553,0.493,0.474,0.256,0.227,��,1.6,�L
2015/06/06,03:10,0.523,0.303,0.550,0.494,0.473,0.253,0.225,���쐼,5.4,�L
2015/06/06,03:20,0.518,0.306,0.549,0.491,0.469,0.254,0.226,�쐼,6.4,�L
2015/06/06,03:30,0.521,0.305,0.546,0.491,0.473,0.253,0.225,�k��,3.7,�L
2015/06/06,03:40,0.518,0.306,0.549,0.488,0.470,0.252,0.224,��,2.5,�L
2015/06/06,03:50,0.520,0.303,0.546,0.490,0.472,0.254,0.225,�k�k��,1.5,�L
2015/06/06,04:00,0.517,0.306,0.545,0.486,0.468,0.252,0.223,��,3.9,�L
2015/06/06,04:10,0.519,0.303,0.544,0.490,0.472,0.252,0.224,�k,2.2,�L
2015/06/06,04:20,0.516,0.304,0.543,0.486,0.468,0.250,0.223,�k,2.2,�L
2015/06/06,04:30,0.517,0.302,0.544,0.489,0.474,0.250,0.223,�k,1.4,��
2015/06/06,04:40,0.516,0.303,0.542,0.488,0.469,0.251,0.221,�k,1.5,�L
2015/06/06,04:50,0.517,0.301,0.543,0.490,0.473,0.249,0.221,�k�k��,2.8,�L
2015/06/06,05:00,0.513,0.302,0.541,0.487,0.468,0.249,0.220,�k,2.1,�L
2015/06/06,05:10,0.515,0.301,0.542,0.489,0.471,0.250,0.221,�k�k��,2.0,�L
2015/06/06,05:20,0.512,0.300,0.540,0.484,0.468,0.248,0.219,�k��,2.4,�L
2015/06/06,05:30,0.517,0.299,0.541,0.486,0.472,0.247,0.219,�k,2.8,�L
2015/06/06,05:40,0.510,0.300,0.539,0.484,0.469,0.248,0.220,�k,3.0,��
2015/06/06,05:50,0.515,0.300,0.541,0.484,0.469,0.245,0.218,�k,3.3,��
2015/06/06,06:00,0.510,0.298,0.539,0.485,0.470,0.247,0.218,�k,3.3,��
2015/06/06,06:10,0.514,0.300,0.541,0.484,0.468,0.247,0.217,�k,3.4,�L
2015/06/06,06:20,0.510,0.298,0.536,0.484,0.469,0.247,0.218,�k�k��,4.1,�L
2015/06/06,06:30,0.514,0.299,0.542,0.483,0.467,0.246,0.218,�k�k��,5.3,�L
2015/06/06,06:40,0.510,0.298,0.537,0.484,0.469,0.246,0.216,�k�k��,7.3,�L
2015/06/06,06:50,0.516,0.298,0.542,0.481,0.465,0.246,0.217,�k�k��,6.2,��
2015/06/06,07:00,0.512,0.295,0.535,0.486,0.468,0.245,0.217,�k,6.2,�L
2015/06/06,07:10,0.513,0.299,0.540,0.481,0.463,0.245,0.218,�k,6.8,�L
2015/06/06,07:20,0.511,0.298,0.535,0.484,0.470,0.248,0.218,�k�k��,8.1,�L
2015/06/06,07:30,0.514,0.299,0.539,0.479,0.466,0.245,0.219,�k�k��,7.8,�L
2015/06/06,07:40,0.511,0.299,0.534,0.484,0.470,0.248,0.218,�k�k��,6.5,�L
2015/06/06,07:50,0.513,0.299,0.541,0.480,0.466,0.247,0.218,�k�k��,6.4,�L
2015/06/06,08:00,0.511,0.300,0.534,0.485,0.471,0.247,0.218,�k�k��,7.6,�L
2015/06/06,08:10,0.510,0.300,0.538,0.481,0.466,0.247,0.218,�k,7.7,�L
2015/06/06,08:20,0.514,0.301,0.536,0.483,0.469,0.247,0.218,�k,8.4,�L
2015/06/06,08:30,0.509,0.298,0.539,0.480,0.465,0.247,0.218,�k,6.4,�L
2015/06/06,08:40,0.513,0.300,0.534,0.484,0.469,0.247,0.218,�k�k��,8.1,�L
2015/06/06,08:50,0.508,0.297,0.538,0.479,0.467,0.246,0.218,�k,7.2,�L
2015/06/06,09:00,0.513,0.298,0.535,0.482,0.466,0.246,0.217,�k,7.7,�L
2015/06/06,09:10,0.510,0.297,0.540,0.479,0.469,0.245,0.218,�k,7.6,��
2015/06/06,09:20,0.514,0.299,0.533,0.480,0.465,0.244,0.216,�k,8.1,��
2015/06/06,09:30,0.509,0.298,0.540,0.480,0.467,0.245,0.215,�k,7.3,��
2015/06/06,09:40,0.514,0.298,0.535,0.482,0.466,0.244,0.217,�k,5.5,��
2015/06/06,09:50,0.510,0.298,0.537,0.482,0.469,0.243,0.215,�k,6.5,�L
2015/06/06,10:00,0.513,0.298,0.534,0.479,0.464,0.244,0.216,�k,7.8,�L
2015/06/06,10:10,0.510,0.299,0.538,0.482,0.470,0.243,0.215,�k,7.3,��
2015/06/06,10:20,0.513,0.297,0.536,0.481,0.466,0.245,0.216,�k�k��,7.1,��
2015/06/06,10:30,0.511,0.299,0.537,0.482,0.469,0.243,0.216,�k,6.0,�L
2015/06/06,10:40,0.512,0.296,0.533,0.478,0.466,0.245,0.216,�k,7.8,�L
2015/06/06,10:50,0.512,0.298,0.535,0.481,0.467,0.244,0.216,�k,7.4,��
2015/06/06,11:00,0.512,0.296,0.535,0.479,0.467,0.245,0.215,�k,8.2,��
2015/06/06,11:10,0.512,0.299,0.538,0.482,0.468,0.243,0.215,�k�k��,5.0,��
2015/06/06,11:20,0.511,0.297,0.534,0.478,0.465,0.245,0.216,�k,7.2,��
2015/06/06,11:30,0.512,0.298,0.538,0.482,0.466,0.243,0.215,�k,8.2,��
2015/06/06,11:40,0.512,0.297,0.534,0.478,0.466,0.244,0.215,�k,7.3,��
2015/06/06,11:50,0.512,0.299,0.538,0.482,0.467,0.243,0.216,�k,7.8,��
2015/06/06,12:00,0.512,0.296,0.534,0.479,0.465,0.244,0.216,�k,7.1,��
2015/06/06,12:10,0.512,0.298,0.537,0.481,0.468,0.242,0.215,�k,7.6,��
2015/06/06,12:20,0.514,0.296,0.533,0.478,0.466,0.243,0.216,�k,7.9,��
2015/06/06,12:30,0.512,0.299,0.538,0.481,0.469,0.243,0.215,�k,5.1,��
2015/06/06,12:40,0.513,0.296,0.534,0.481,0.466,0.243,0.215,�k,5.7,��
2015/06/06,12:50,0.512,0.300,0.541,0.482,0.470,0.244,0.215,�k,5.3,��
2015/06/06,13:00,0.515,0.296,0.534,0.481,0.466,0.243,0.217,�k,7.1,��
2015/06/06,13:10,0.511,0.297,0.540,0.480,0.470,0.245,0.215,�k,7.0,��
2015/06/06,13:20,0.514,0.295,0.533,0.483,0.466,0.242,0.217,�k,6.7,��
2015/06/06,13:30,0.512,0.297,0.539,0.478,0.470,0.244,0.215,�k�k��,6.4,��
2015/06/06,13:40,0.515,0.297,0.537,0.483,0.465,0.244,0.216,�k,7.5,��
2015/06/06,13:50,0.513,0.298,0.536,0.478,0.469,0.244,0.217,�k,5.5,��
2015/06/06,14:00,0.515,0.299,0.537,0.483,0.468,0.245,0.215,�k,4.1,��
2015/06/06,14:10,0.511,0.298,0.535,0.480,0.468,0.243,0.217,�k�k��,4.4,��
2015/06/06,14:20,0.516,0.298,0.539,0.484,0.469,0.247,0.215,�k�k��,4.4,��
2015/06/06,14:30,0.513,0.296,0.534,0.481,0.464,0.243,0.216,�k�k��,7.0,��
2015/06/06,14:40,0.517,0.299,0.541,0.481,0.472,0.244,0.215,�k�k��,6.3,��
2015/06/06,14:50,0.512,0.298,0.536,0.485,0.467,0.244,0.216,�k��,6.2,��
2015/06/06,15:00,0.515,0.300,0.538,0.480,0.469,0.244,0.217,�k��,5.5,��
2015/06/06,15:10,0.514,0.295,0.538,0.485,0.470,0.244,0.215,�k��,6.3,��
2015/06/06,15:20,0.515,0.299,0.534,0.479,0.464,0.243,0.217,�k��,5.1,��
2015/06/06,15:30,0.514,0.298,0.539,0.485,0.471,0.245,0.214,�k��,4.7,��
2015/06/06,15:40,0.513,0.297,0.534,0.480,0.470,0.244,0.217,�k��,4.7,��
2015/06/06,15:50,0.517,0.298,0.538,0.484,0.466,0.244,0.216,�k�k��,5.3,��
2015/06/06,16:00,0.513,0.298,0.539,0.482,0.474,0.247,0.216,�k�k��,4.5,��
2015/06/06,16:10,0.517,0.298,0.539,0.485,0.467,0.243,0.216,�k�k��,4.2,��
2015/06/06,16:20,0.511,0.297,0.541,0.484,0.473,0.246,0.217,�k��,3.8,��
2015/06/06,16:30,0.517,0.300,0.537,0.483,0.468,0.244,0.215,�k��,3.0,��
2015/06/06,16:40,0.513,0.298,0.541,0.484,0.466,0.244,0.216,�k�k��,2.8,��
2015/06/06,16:50,0.517,0.299,0.538,0.483,0.472,0.246,0.216,�k��,2.6,��
2015/06/06,17:00,0.512,0.300,0.541,0.485,0.465,0.244,0.217,�k��,3.0,��
2015/06/06,17:10,0.518,0.299,0.537,0.486,0.465,0.245,0.216,�k��,2.6,��
2015/06/06,17:20,0.513,0.298,0.543,0.483,0.474,0.244,0.217,���k��,2.0,��
2015/06/06,17:30,0.517,0.300,0.538,0.485,0.467,0.245,0.217,���k��,1.6,��
2015/06/06,17:40,0.516,0.301,0.542,0.484,0.468,0.246,0.216,��,0.9,��
2015/06/06,17:50,0.517,0.297,0.537,0.486,0.473,0.246,0.216,���쓌,0.5,��
2015/06/06,18:00,0.516,0.299,0.541,0.482,0.466,0.244,0.216,�쓌,0.5,��
2015/06/06,18:10,0.516,0.299,0.538,0.485,0.473,0.246,0.216,-,CALM,��
2015/06/06,18:20,0.515,0.300,0.543,0.483,0.470,0.245,0.217,�쓌,1.0,��
2015/06/06,18:30,0.516,0.299,0.541,0.487,0.473,0.246,0.217,��쓌,1.1,��
2015/06/06,18:40,0.516,0.300,0.542,0.483,0.471,0.245,0.216,��쓌,1.3,��
2015/06/06,18:50,0.514,0.297,0.538,0.486,0.473,0.246,0.217,��,1.7,��
2015/06/06,19:00,0.514,0.299,0.543,0.481,0.470,0.245,0.216,��,2.2,��
2015/06/06,19:10,0.516,0.299,0.537,0.485,0.474,0.244,0.216,��쓌,1.4,��
2015/06/06,19:20,0.516,0.298,0.542,0.484,0.470,0.247,0.216,��,1.1,��
2015/06/06,19:30,0.519,0.298,0.537,0.485,0.475,0.244,0.216,��,1.0,��
2015/06/06,19:40,0.515,0.298,0.542,0.485,0.468,0.246,0.216,��쐼,0.7,��
2015/06/06,19:50,0.518,0.301,0.537,0.484,0.472,0.245,0.217,��쐼,0.7,��
2015/06/06,20:00,0.515,0.299,0.541,0.485,0.470,0.245,0.217,��쐼,1.0,��
2015/06/06,20:10,0.519,0.298,0.538,0.482,0.469,0.246,0.215,��쐼,1.4,��
2015/06/06,20:20,0.514,0.299,0.540,0.486,0.470,0.244,0.217,��,1.0,��
2015/06/06,20:30,0.516,0.298,0.541,0.483,0.467,0.245,0.217,��쓌,1.4,��
2015/06/06,20:40,0.516,0.300,0.539,0.485,0.471,0.246,0.218,��쓌,1.1,��
2015/06/06,20:50,0.516,0.298,0.541,0.484,0.469,0.246,0.217,���쓌,0.7,��
2015/06/06,21:00,0.518,0.298,0.537,0.485,0.471,0.245,0.216,-,CALM,��
2015/06/06,21:10,0.517,0.299,0.541,0.485,0.468,0.244,0.216,�k��,0.6,��
2015/06/06,21:20,0.517,0.299,0.538,0.483,0.468,0.245,0.216,���k��,0.9,��
2015/06/06,21:30,0.514,0.301,0.540,0.485,0.470,0.245,0.217,�k�k��,2.0,��
2015/06/06,21:40,0.518,0.299,0.539,0.484,0.468,0.245,0.216,�k�k��,1.9,��
2015/06/06,21:50,0.514,0.298,0.541,0.485,0.470,0.246,0.217,�k��,0.7,��
2015/06/06,22:00,0.515,0.299,0.543,0.485,0.468,0.245,0.218,�k,1.0,��
2015/06/06,22:10,0.516,0.299,0.539,0.482,0.467,0.245,0.217,�k,1.4,��
2015/06/06,22:20,0.516,0.299,0.543,0.486,0.471,0.246,0.217,�k�k��,1.1,��
2015/06/06,22:30,0.517,0.299,0.539,0.483,0.467,0.245,0.218,�k�k��,1.4,��
2015/06/06,22:40,0.515,0.299,0.542,0.486,0.469,0.246,0.217,�k�k��,1.4,��
2015/06/06,22:50,0.519,0.299,0.538,0.485,0.468,0.245,0.216,�k�k��,1.7,��
2015/06/06,23:00,0.515,0.299,0.541,0.483,0.469,0.245,0.217,�k,2.1,��
2015/06/06,23:10,0.517,0.298,0.539,0.485,0.469,0.245,0.217,�k,1.1,��
2015/06/06,23:20,0.517,0.299,0.538,0.483,0.468,0.245,0.217,�k,2.8,��
2015/06/06,23:30,0.517,0.298,0.542,0.484,0.469,0.245,0.216,�k,3.0,��
2015/06/06,23:40,0.519,0.301,0.538,0.483,0.469,0.245,0.217,�k,2.3,��
2015/06/06,23:50,0.516,0.299,0.540,0.484,0.467,0.244,0.216,�k,1.8,��
